This is the latest recevied weather packets stored in our database for station/object EA7OC-10. If no packets are shown the sender has not sent any weather packets the latest 10 day(s).
| Time | Temp. | Humidity | Pressure | Rain* | Wind** | Luminosity | Snow |
|---|---|---|---|---|---|---|---|
| 1788308582 | 27.78° C | 24% | 1019.4 hPa | - | - | - | - |
| 1788307682 | 28.33° C | 24% | 1019.4 hPa | - | - | - | - |
| 1788306782 | 28.33° C | 23% | 1019.3 hPa | - | - | - | - |
| 1788305882 | 28.89° C | 24% | 1019.4 hPa | - | - | - | - |
| 1788304982 | 28.89° C | 24% | 1019.3 hPa | - | - | - | - |
| 1788304082 | 29.44° C | 23% | 1019.3 hPa | - | - | - | - |
| 1788303181 | 29.44° C | 23% | 1019 hPa | - | - | - | - |
| 1788302281 | 30° C | 23% | 1018.8 hPa | - | - | - | - |
| 1788301381 | 30.56° C | 23% | 1018.8 hPa | - | - | - | - |
| 1788300481 | 31.11° C | 23% | 1018.8 hPa | - | - | - | - |
| 1788299581 | 30.56° C | 23% | 1018.8 hPa | - | - | - | - |
| 1788298681 | 30° C | 23% | 1018.7 hPa | - | - | - | - |
| 1788297781 | 30° C | 22% | 1018.3 hPa | - | - | - | - |
| 1788296881 | 30.56° C | 22% | 1018 hPa | - | - | - | - |
| 1788295981 | 30.56° C | 21% | 1017.7 hPa | - | - | - | - |
| 1788295081 | 31.11° C | 22% | 1017.4 hPa | - | - | - | - |
| 1788294180 | 31.67° C | 21% | 1017 hPa | - | - | - | - |
| 1788293281 | 32.22° C | 21% | 1016.7 hPa | - | - | - | - |
| 1788292380 | 32.78° C | 21% | 1016.5 hPa | - | - | - | - |
| 1788291480 | 33.33° C | 21% | 1016.2 hPa | - | - | - | - |
| 1788290581 | 33.33° C | 21% | 1016.1 hPa | - | - | - | - |
| 1788289680 | 34.44° C | 21% | 1015.8 hPa | - | - | - | - |
| 1788288780 | 35.56° C | 21% | 1015.7 hPa | - | - | - | - |
| 1788287880 | 36.67° C | 21% | 1015.6 hPa | - | - | - | - |
| 1788286980 | 38.33° C | 20% | 1015.4 hPa | - | - | - | - |
* Rain since midnight (hover to see other rain measurements)
** Current wind speed in m/s (hover to see current wind gust speed)